Weather History for West Palm Beach, FL

Change the Weather History Date:

Tuesday, August 26, 2014

  Actual Average Record
Temperature  
Mean Temperature 87 °F 83 °F  
Max Temperature 91 °F 90 °F 96 °F (1946)
Min Temperature 82 °F 76 °F 70 °F (1948)
Degree Days  
Heating Degree Days 0 0  
Month to date heating degree days 0 0  
Since 1 June heating degree days 0 0  
Since 1 July heating degree days 0 0  
Cooling Degree Days 22 18  
Month to date cooling degree days 506 468  
Year to date cooling degree days 2910 2616  
Since 1 June cooling degree days 1558 1507  
Growing Degree Days 36 (Base 50)    
Moisture  
Dew Point 71 °F    
Average Humidity 60    
Maximum Humidity 70    
Minimum Humidity 49    
Precipitation  
Precipitation 0.00 in 0.28 in 5.52 in (2012)
Month to date precipitation 9.42 6.58  
Year to date precipitation 42.85 39.35  
Snow  
Snow 0.00 in - - ()
Month to date snowfall 0.0  
Since 1 June snowfall 0.0  
Since 1 July snowfall 0.0  
Snow Depth 0.00 in    
Sea Level Pressure  
Sea Level Pressure 29.84 in    
Wind  
Wind Speed 14 mph (NE)    
Max Wind Speed 23 mph    
Max Gust Speed 30 mph    
Visibility 10 miles    
Events      
T = Trace of Precipitation, MM = Missing Value Source: NWS Daily Summary

Daily Weather History Graph

Daily Weather History Graph

Search for Another Location

Airport:

Trip Planner

Search our weather history database for the weather conditions in past years. The results will help you decide how hot, cold, wet, or windy it might be!

Date:

Astronomy

Aug. 26, 2014 Rise Set
Actual Time 6:57 AM EDT 7:46 PM EDT
Civil Twilight 6:33 AM EDT 8:10 PM EDT
Nautical Twilight 6:05 AM EDT 8:38 PM EDT
Astronomical Twilight 5:36 AM EDT 9:06 PM EDT
Moon 7:46 AM EDT (8/26) 8:19 PM EDT (8/26)
Length of Visible Light 13h 36m
Length of Day
12h 49m
New Moon, 1% of the Moon is Illuminated
Aug 26
New Moon
Sep 2
First Quarter
Sep 8
Full
Sep 15
Last Quarter
Sep 24
New

Hourly Weather History & Observations

Time (EDT) Temp. Heat Index Dew Point Humidity Pressure Visibility Wind Dir Wind Speed Gust Speed Precip Events Conditions
12:53 AM 84.0 °F 89.6 °F 72.0 °F 67% 29.80 in 10.0 mi NE 17.3 mph 21.9 mph N/A   Scattered Clouds
1:53 AM 84.0 °F 90.2 °F 73.0 °F 69% 29.79 in 10.0 mi NE 13.8 mph - N/A   Scattered Clouds
2:53 AM 84.0 °F 89.6 °F 72.0 °F 67% 29.80 in 10.0 mi NE 12.7 mph - N/A   Scattered Clouds
3:53 AM 84.0 °F 89.0 °F 71.1 °F 65% 29.78 in 10.0 mi NE 16.1 mph - N/A   Scattered Clouds
4:53 AM 84.0 °F 89.6 °F 72.0 °F 67% 29.77 in 10.0 mi NE 16.1 mph - N/A   Scattered Clouds
5:53 AM 82.9 °F 87.5 °F 71.1 °F 67% 29.79 in 10.0 mi NE 15.0 mph - N/A   Scattered Clouds
6:53 AM 82.9 °F 87.5 °F 71.1 °F 67% 29.81 in 10.0 mi NE 9.2 mph 20.7 mph N/A   Scattered Clouds
7:53 AM 84.0 °F 89.0 °F 71.1 °F 65% 29.83 in 10.0 mi NE 12.7 mph - N/A   Scattered Clouds
8:53 AM 84.9 °F 90.1 °F 71.1 °F 63% 29.84 in 10.0 mi NE 18.4 mph - N/A   Mostly Cloudy
9:53 AM 87.1 °F 92.8 °F 71.1 °F 59% 29.86 in 10.0 mi NE 20.7 mph 25.3 mph N/A   Scattered Clouds
10:53 AM 89.1 °F 96.0 °F 72.0 °F 57% 29.87 in 10.0 mi NE 17.3 mph 27.6 mph N/A   Mostly Cloudy
11:53 AM 89.1 °F 95.0 °F 71.1 °F 55% 29.87 in 10.0 mi ENE 19.6 mph 27.6 mph N/A   Scattered Clouds
12:53 PM 90.0 °F 95.4 °F 70.0 °F 52% 29.87 in 10.0 mi NE 18.4 mph 26.5 mph N/A   Scattered Clouds
1:53 PM 91.0 °F 96.6 °F 70.0 °F 50% 29.88 in 10.0 mi NE 17.3 mph 21.9 mph N/A   Scattered Clouds
2:53 PM 89.1 °F 94.1 °F 70.0 °F 53% 29.86 in 10.0 mi NE 17.3 mph 25.3 mph N/A   Scattered Clouds
3:53 PM 90.0 °F 96.4 °F 71.1 °F 54% 29.86 in 10.0 mi NE 15.0 mph 25.3 mph N/A   Mostly Cloudy
4:53 PM 88.0 °F 92.9 °F 70.0 °F 55% 29.85 in 10.0 mi NNE 15.0 mph - N/A   Mostly Cloudy
5:53 PM 88.0 °F 93.8 °F 71.1 °F 57% 29.85 in 10.0 mi NNE 13.8 mph - N/A   Mostly Cloudy
6:53 PM 87.1 °F 92.0 °F 70.0 °F 57% 29.85 in 10.0 mi NNE 12.7 mph 20.7 mph N/A   Mostly Cloudy
7:53 PM 84.9 °F 89.4 °F 70.0 °F 61% 29.86 in 10.0 mi NNE 13.8 mph - N/A   Mostly Cloudy
8:53 PM 84.9 °F 89.4 °F 70.0 °F 61% 29.88 in 10.0 mi NNE 13.8 mph - N/A   Mostly Cloudy
9:53 PM 84.0 °F 87.0 °F 68.0 °F 58% 29.90 in 10.0 mi NE 11.5 mph - N/A   Mostly Cloudy
10:53 PM 84.0 °F 86.3 °F 66.0 °F 55% 29.90 in 10.0 mi NNE 6.9 mph - N/A   Scattered Clouds
11:53 PM 82.9 °F 85.4 °F 66.9 °F 58% 29.90 in 10.0 mi NE 8.1 mph - N/A   Partly Cloudy